Simultaneous Nadir Overpasses (SNOs) Predictions

Prediction of SNOs between GOES-16 and LANDSAT-8 Satellite Orbit:

Table of predicted SNOs for the next 14.0 days since TLE Epoch: 6/8/2024
Index Date Time (GOES-16) GOES-16 Lat,Lon LANDSAT-8 Lat,Lon Distance(km) Time Diff (sec)
1 06/10/2024 03:11:21 -0.05, -75.21 0.07, -74.67 61.67 80
2 06/12/2024 02:59:09 -0.04, -75.22 0.70, -71.70 400.36 80
3 06/12/2024 15:17:44 0.04, -75.23 0.41, -76.85 185.26 80
4 06/14/2024 15:08:12 0.04, -75.26 -0.25, -73.90 154.76 80
5 06/15/2024 03:26:56 -0.03, -75.26 -0.83, -79.09 434.44 80
6 06/16/2024 14:55:59 0.04, -75.29 -0.89, -70.93 495.52 80
7 06/17/2024 03:14:43 -0.03, -75.29 -0.19, -76.12 93.53 80
8 06/19/2024 03:05:09 -0.03, -75.33 0.41, -73.14 247.82 80
9 06/19/2024 15:23:44 0.03, -75.34 0.68, -78.30 337.29 80
10 06/21/2024 15:11:30 0.03, -75.37 0.04, -75.33 5.13 80
